Location: Mentone
(34.5413°N, 85.5351°W)
Time: 21:22:22
(UTC-05:00)

Cosmos 2150 Rocket - Visible Passes

Search period start: 01 October 2014 00:00
Search period end: 11 October 2014 00:00
Orbit: 751 x 808 km, 74.0° (Epoch: 30 September)

Date Brightness Start Highest point End Pass type
(mag) Time Alt. Az. Time Alt. Az. Time Alt. Az.
04 Oct 6.8 05:58:21 10° NNE 06:01:29 16° ENE 06:04:37 10° E visible
05 Oct 4.9 19:59:07 10° S 20:02:14 32° SSE 20:02:14 32° SSE visible
06 Oct 4.8 19:26:19 10° SSE 19:30:44 28° E 19:33:14 19° ENE visible
06 Oct 5.8 21:08:21 10° SW 21:12:53 29° WNW 21:14:09 26° NW visible
07 Oct 5.9 05:58:44 10° N 06:03:24 34° ENE 06:08:04 10° SE visible
07 Oct 5.4 18:54:11 10° SE 18:57:23 16° E 19:00:34 10° ENE visible
07 Oct 4.9 20:34:10 10° SW 20:39:14 47° WNW 20:44:15 10° N visible
08 Oct 6.6 05:25:48 10° NNE 05:29:40 21° ENE 05:33:33 10° ESE visible
08 Oct 4.0 20:00:23 10° SSW 20:05:39 79° WNW 20:10:52 10° NNE visible
09 Oct 7.0 04:53:30 10° NNE 04:55:52 13° ENE 04:58:13 10° E visible
09 Oct 3.9 19:26:57 10° S 19:32:08 62° ESE 19:37:16 10° NNE visible
09 Oct 6.9 21:12:13 10° W 21:14:51 14° WNW 21:17:28 10° NNW visible
10 Oct 4.2 05:59:55 10° NNW 06:05:05 75° ENE 06:10:17 10° SSE visible
10 Oct 4.5 18:53:55 10° SSE 18:58:42 37° E 19:03:26 10° NE visible
10 Oct 6.3 20:37:01 10° WSW 20:41:03 22° WNW 20:45:03 10° NNW visible
